EZY46TW EGPH-EGGD

Flight info

Callsign EZY46TW
Flight time 0h 56m
Altitude 33000
Route GOSAM P600 FENIK L612 NAVSO DCT ADZOP DCT EGTOC DCT NOKIN N862 KARNO DCT ALHUP DCT LUCSA N862 WEVBE
Aircraft A320/M-SDE2E3FGHIJ1RWXYZ/LB1

Departure

Time 2026-04-25 20:21
Airport Edinburgh Airport (EGPH)

Arrival

Time 2026-04-25 21:17
Airport Bristol Airport (EGGD)
Time Latitude Longitude Altitude Speed Heading
2026-04-25 19:54 55.94832 -3.35808 112 ft 0 kts 209°
2026-04-25 20:08 55.94850 -3.35791 113 ft 4 kts 209°
2026-04-25 20:08 55.94869 -3.35772 112 ft 4 kts 213°
2026-04-25 20:09 55.94886 -3.35741 112 ft 4 kts 259°
2026-04-25 20:09 55.94883 -3.35698 113 ft 4 kts 297°
2026-04-25 20:09 55.94881 -3.35690 114 ft 0 kts 298°
2026-04-25 20:13 55.94908 -3.35780 114 ft 10 kts 298°
2026-04-25 20:14 55.94954 -3.35861 114 ft 9 kts 336°
2026-04-25 20:14 55.95007 -3.35838 115 ft 9 kts 27°
2026-04-25 20:14 55.95059 -3.35876 113 ft 9 kts 301°
2026-04-25 20:14 55.95085 -3.35968 112 ft 8 kts 295°
2026-04-25 20:15 55.95104 -3.36055 114 ft 8 kts 290°
2026-04-25 20:15 55.95130 -3.36199 113 ft 12 kts 283°
2026-04-25 20:15 55.95116 -3.36333 115 ft 11 kts 240°
2026-04-25 20:15 55.95080 -3.36440 115 ft 10 kts 240°
2026-04-25 20:16 55.95034 -3.36576 113 ft 13 kts 238°
2026-04-25 20:16 55.94990 -3.36708 113 ft 12 kts 239°
2026-04-25 20:16 55.94950 -3.36827 113 ft 11 kts 239°
2026-04-25 20:16 55.94912 -3.36938 115 ft 10 kts 239°
2026-04-25 20:17 55.94878 -3.37038 115 ft 9 kts 239°
2026-04-25 20:17 55.94847 -3.37130 113 ft 11 kts 238°
2026-04-25 20:17 55.94777 -3.37340 115 ft 22 kts 239°
2026-04-25 20:17 55.94700 -3.37565 113 ft 20 kts 239°
2026-04-25 20:18 55.94629 -3.37771 115 ft 19 kts 238°
2026-04-25 20:18 55.94565 -3.37962 114 ft 17 kts 239°
2026-04-25 20:18 55.94505 -3.38138 114 ft 16 kts 238°
2026-04-25 20:18 55.94450 -3.38302 114 ft 15 kts 239°
2026-04-25 20:19 55.94398 -3.38454 113 ft 14 kts 239°
2026-04-25 20:19 55.94349 -3.38599 114 ft 16 kts 239°
2026-04-25 20:19 55.94298 -3.38750 112 ft 11 kts 239°
2026-04-25 20:19 55.94290 -3.38855 113 ft 8 kts 297°
2026-04-25 20:20 55.94335 -3.38919 116 ft 11 kts 328°
2026-04-25 20:20 55.94411 -3.38968 114 ft 11 kts 22°
2026-04-25 20:20 55.94456 -3.38854 113 ft 13 kts 59°
2026-04-25 20:20 55.94585 -3.38475 111 ft 71 kts 59°
2026-04-25 20:21 55.94960 -3.37365 112 ft 132 kts 59°
2026-04-25 20:21 55.95497 -3.35772 434 ft 151 kts 60°
2026-04-25 20:21 55.96028 -3.34206 1272 ft 148 kts 57°
2026-04-25 20:21 55.96763 -3.32833 1863 ft 162 kts 47°
2026-04-25 20:22 55.97660 -3.31398 2237 ft 184 kts 45°
2026-04-25 20:22 55.98324 -3.30359 2458 ft 199 kts 45°
2026-04-25 20:22 55.99940 -3.28227 2968 ft 236 kts 20°
2026-04-25 20:22 56.01631 -3.28163 3465 ft 258 kts 340°
2026-04-25 20:23 56.03076 -3.30063 4305 ft 261 kts 302°
2026-04-25 20:23 56.03604 -3.33081 5303 ft 259 kts 270°
2026-04-25 20:23 56.03364 -3.36283 6251 ft 261 kts 256°
2026-04-25 20:23 56.02848 -3.39412 7139 ft 266 kts 252°
2026-04-25 20:24 56.02252 -3.42575 7990 ft 270 kts 251°
2026-04-25 20:24 56.01673 -3.45721 8917 ft 271 kts 251°
2026-04-25 20:24 56.01114 -3.48984 9780 ft 276 kts 252°
2026-04-25 20:24 56.00578 -3.52351 10556 ft 284 kts 253°
2026-04-25 20:25 56.00047 -3.55851 10836 ft 307 kts 253°
2026-04-25 20:25 55.99487 -3.59676 11384 ft 319 kts 254°
2026-04-25 20:25 55.98932 -3.63557 12126 ft 325 kts 255°
2026-04-25 20:25 55.98375 -3.67493 12914 ft 328 kts 254°
2026-04-25 20:26 55.97815 -3.71449 13684 ft 332 kts 254°
2026-04-25 20:26 55.97243 -3.75460 14383 ft 335 kts 254°
2026-04-25 20:26 55.96662 -3.79511 15061 ft 339 kts 254°
2026-04-25 20:26 55.96077 -3.83551 15714 ft 342 kts 254°
2026-04-25 20:27 55.95350 -3.87648 16379 ft 344 kts 243°
2026-04-25 20:27 55.94009 -3.91100 17045 ft 346 kts 225°
2026-04-25 20:27 55.92048 -3.93589 17672 ft 351 kts 206°
2026-04-25 20:27 55.89676 -3.94710 18290 ft 358 kts 185°
2026-04-25 20:28 55.87184 -3.94275 18858 ft 365 kts 169°
2026-04-25 20:28 55.84685 -3.93272 19410 ft 369 kts 169°
2026-04-25 20:28 55.82171 -3.92247 19955 ft 372 kts 169°
2026-04-25 20:28 55.79636 -3.91213 20494 ft 376 kts 169°
2026-04-25 20:29 55.77078 -3.90173 21024 ft 379 kts 169°
2026-04-25 20:29 55.74493 -3.89128 21548 ft 383 kts 169°
2026-04-25 20:29 55.71883 -3.88085 22054 ft 386 kts 170°
2026-04-25 20:29 55.69246 -3.87042 22542 ft 390 kts 170°
2026-04-25 20:30 55.66586 -3.85994 23040 ft 394 kts 170°
2026-04-25 20:30 55.63905 -3.84938 23542 ft 397 kts 170°
2026-04-25 20:30 55.61196 -3.83874 23995 ft 400 kts 170°
2026-04-25 20:30 55.58468 -3.82801 24416 ft 403 kts 170°
2026-04-25 20:31 55.55720 -3.81718 24849 ft 405 kts 170°
2026-04-25 20:31 55.52963 -3.80632 25275 ft 407 kts 170°
2026-04-25 20:31 55.50193 -3.79546 25699 ft 409 kts 170°
2026-04-25 20:31 55.47412 -3.78457 26117 ft 411 kts 170°
2026-04-25 20:32 55.44617 -3.77360 26507 ft 413 kts 170°
2026-04-25 20:32 55.41801 -3.76252 26911 ft 415 kts 170°
2026-04-25 20:32 55.38973 -3.75141 27310 ft 417 kts 170°
2026-04-25 20:32 55.36132 -3.74027 27711 ft 420 kts 170°
2026-04-25 20:33 55.33273 -3.72910 28107 ft 421 kts 170°
2026-04-25 20:33 55.30405 -3.71792 28498 ft 424 kts 170°
2026-04-25 20:33 55.27516 -3.70668 28878 ft 426 kts 170°
2026-04-25 20:33 55.25600 -3.69926 29139 ft 427 kts 170°
2026-04-25 20:34 55.21707 -3.68419 29642 ft 430 kts 170°
2026-04-25 20:34 55.18812 -3.67301 29985 ft 433 kts 170°
2026-04-25 20:34 55.15829 -3.66150 30330 ft 435 kts 170°
2026-04-25 20:34 55.12905 -3.65024 30624 ft 437 kts 170°
2026-04-25 20:35 55.09934 -3.63880 30918 ft 439 kts 170°
2026-04-25 20:35 55.06948 -3.62728 31207 ft 440 kts 170°
2026-04-25 20:35 55.03948 -3.61577 31494 ft 441 kts 170°
2026-04-25 20:35 55.00944 -3.60429 31789 ft 442 kts 170°
2026-04-25 20:36 54.97929 -3.59275 32192 ft 441 kts 170°
2026-04-25 20:36 54.94959 -3.58136 32593 ft 439 kts 170°
2026-04-25 20:36 54.91975 -3.56993 32947 ft 439 kts 170°
2026-04-25 20:36 54.88987 -3.55853 33201 ft 439 kts 170°
2026-04-25 20:37 54.86036 -3.54730 33253 ft 428 kts 170°
2026-04-25 20:37 54.83163 -3.53631 33252 ft 420 kts 170°
2026-04-25 20:37 54.77449 -3.51458 33250 ft 416 kts 170°
2026-04-25 20:38 54.71795 -3.49327 33250 ft 416 kts 170°
2026-04-25 20:38 54.66140 -3.47192 33248 ft 417 kts 170°
2026-04-25 20:39 54.60470 -3.45071 33245 ft 417 kts 170°
2026-04-25 20:39 54.55764 -3.43311 33245 ft 416 kts 170°
2026-04-25 20:40 54.49144 -3.40838 33240 ft 416 kts 170°
2026-04-25 20:40 54.43518 -3.38736 33223 ft 416 kts 170°
2026-04-25 20:41 54.37860 -3.36632 33222 ft 417 kts 170°
2026-04-25 20:41 54.32190 -3.34533 33225 ft 417 kts 170°
2026-04-25 20:42 54.26515 -3.32437 33227 ft 417 kts 170°
2026-04-25 20:42 54.20843 -3.30350 33231 ft 417 kts 170°
2026-04-25 20:43 54.15163 -3.28265 33217 ft 417 kts 171°
2026-04-25 20:43 54.09484 -3.26179 33218 ft 418 kts 171°
2026-04-25 20:44 54.03800 -3.24098 33216 ft 418 kts 171°
2026-04-25 20:44 53.98116 -3.22019 33213 ft 418 kts 170°
2026-04-25 20:45 53.92429 -3.19865 33201 ft 419 kts 170°
2026-04-25 20:45 53.86749 -3.17681 33201 ft 419 kts 170°
2026-04-25 20:46 53.81057 -3.15508 33200 ft 419 kts 170°
2026-04-25 20:46 53.75367 -3.13365 33204 ft 419 kts 170°
2026-04-25 20:47 53.69671 -3.11231 33189 ft 420 kts 170°
2026-04-25 20:47 53.63963 -3.09092 33191 ft 421 kts 170°
2026-04-25 20:48 53.58241 -3.06952 33195 ft 422 kts 170°
2026-04-25 20:48 53.52505 -3.04816 33199 ft 422 kts 170°
2026-04-25 20:49 53.46771 -3.02684 33215 ft 422 kts 170°
2026-04-25 20:49 53.41025 -3.00560 33236 ft 423 kts 170°
2026-04-25 20:50 53.35317 -2.98453 33244 ft 423 kts 170°
2026-04-25 20:50 53.29574 -2.96317 33244 ft 423 kts 170°
2026-04-25 20:51 53.23828 -2.94193 33244 ft 423 kts 170°
2026-04-25 20:51 53.18079 -2.92093 33227 ft 423 kts 171°
2026-04-25 20:52 53.14229 -2.90689 33222 ft 423 kts 171°
2026-04-25 20:52 53.09447 -2.88959 33076 ft 420 kts 173°
2026-04-25 20:52 53.06590 -2.88437 32708 ft 409 kts 182°
2026-04-25 20:53 53.03768 -2.88577 32214 ft 404 kts 186°
2026-04-25 20:53 53.00974 -2.88816 31729 ft 400 kts 186°
2026-04-25 20:53 52.98199 -2.89062 31251 ft 398 kts 187°
2026-04-25 20:53 52.95451 -2.89308 30787 ft 394 kts 188°
2026-04-25 20:54 52.92721 -2.89552 30337 ft 392 kts 188°
2026-04-25 20:54 52.90014 -2.89789 29836 ft 388 kts 188°
2026-04-25 20:54 52.87362 -2.90320 29411 ft 380 kts 193°
2026-04-25 20:54 52.84761 -2.90935 28991 ft 376 kts 193°
2026-04-25 20:55 52.82185 -2.91544 28580 ft 371 kts 193°
2026-04-25 20:55 52.79645 -2.92144 28175 ft 367 kts 192°
2026-04-25 20:55 52.77130 -2.92733 27764 ft 363 kts 192°
2026-04-25 20:55 52.74637 -2.93314 27352 ft 360 kts 192°
2026-04-25 20:56 52.72999 -2.93696 27081 ft 358 kts 192°
2026-04-25 20:56 52.70536 -2.94175 26649 ft 357 kts 187°
2026-04-25 20:56 52.68058 -2.94379 26230 ft 355 kts 186°
2026-04-25 20:56 52.64766 -2.94651 25648 ft 353 kts 186°
2026-04-25 20:57 52.63143 -2.94786 25360 ft 353 kts 186°
2026-04-25 20:57 52.60696 -2.94987 24916 ft 352 kts 186°
2026-04-25 20:57 52.58252 -2.95187 24461 ft 351 kts 186°
2026-04-25 20:57 52.55811 -2.95391 24009 ft 351 kts 185°
2026-04-25 20:58 52.53365 -2.95597 23513 ft 352 kts 185°
2026-04-25 20:58 52.50926 -2.95799 23045 ft 350 kts 185°
2026-04-25 20:58 52.48507 -2.95999 22591 ft 348 kts 185°
2026-04-25 20:58 52.46099 -2.96197 22164 ft 345 kts 185°
2026-04-25 20:59 52.43708 -2.96395 21739 ft 343 kts 185°
2026-04-25 20:59 52.41324 -2.96593 21304 ft 342 kts 185°
2026-04-25 20:59 52.38959 -2.96788 20875 ft 340 kts 185°
2026-04-25 20:59 52.36596 -2.96982 20456 ft 339 kts 185°
2026-04-25 21:00 52.34246 -2.97176 20042 ft 338 kts 185°
2026-04-25 21:00 52.32689 -2.97304 19767 ft 337 kts 185°
2026-04-25 21:00 52.27231 -2.97743 18796 ft 335 kts 185°
2026-04-25 21:01 52.24897 -2.97935 18363 ft 335 kts 185°
2026-04-25 21:01 52.22605 -2.98124 17932 ft 333 kts 185°
2026-04-25 21:01 52.20297 -2.98312 17527 ft 331 kts 185°
2026-04-25 21:01 52.18003 -2.98495 17127 ft 329 kts 185°
2026-04-25 21:02 52.15724 -2.98676 16733 ft 328 kts 185°
2026-04-25 21:02 52.13451 -2.98856 16345 ft 326 kts 185°
2026-04-25 21:02 52.11207 -2.99034 16204 ft 319 kts 185°
2026-04-25 21:02 52.08998 -2.99213 16215 ft 317 kts 185°
2026-04-25 21:03 52.06782 -2.99394 15789 ft 320 kts 185°
2026-04-25 21:03 52.04578 -2.99574 15715 ft 315 kts 185°
2026-04-25 21:03 52.02393 -2.99753 15649 ft 314 kts 185°
2026-04-25 21:03 52.00212 -2.99931 15532 ft 314 kts 184°
2026-04-25 21:04 51.98034 -3.00105 15419 ft 313 kts 184°
2026-04-25 21:04 51.95852 -3.00158 15288 ft 313 kts 176°
2026-04-25 21:04 51.93719 -2.99482 15253 ft 314 kts 163°
2026-04-25 21:04 51.91663 -2.98259 15276 ft 316 kts 161°
2026-04-25 21:05 51.89593 -2.97010 14595 ft 321 kts 161°
2026-04-25 21:05 51.87488 -2.95746 13975 ft 318 kts 160°
2026-04-25 21:05 51.85455 -2.94530 13789 ft 310 kts 160°
2026-04-25 21:05 51.83441 -2.93327 13515 ft 307 kts 160°
2026-04-25 21:06 51.81442 -2.92139 13219 ft 305 kts 160°
2026-04-25 21:06 51.79454 -2.90960 12909 ft 304 kts 160°
2026-04-25 21:06 51.77468 -2.89782 12630 ft 304 kts 160°
2026-04-25 21:06 51.76158 -2.89002 12421 ft 303 kts 160°
2026-04-25 21:07 51.73530 -2.87428 12002 ft 300 kts 160°
2026-04-25 21:07 51.71574 -2.86257 11677 ft 298 kts 160°
2026-04-25 21:07 51.69661 -2.85113 11360 ft 296 kts 160°
2026-04-25 21:07 51.67713 -2.83951 11013 ft 295 kts 160°
2026-04-25 21:08 51.65816 -2.82821 10647 ft 294 kts 160°
2026-04-25 21:08 51.63907 -2.81687 10275 ft 288 kts 160°
2026-04-25 21:08 51.62064 -2.80594 9834 ft 277 kts 160°
2026-04-25 21:08 51.60299 -2.79549 9591 ft 261 kts 160°
2026-04-25 21:09 51.56996 -2.77594 8760 ft 250 kts 160°
2026-04-25 21:09 51.55373 -2.76634 8273 ft 248 kts 160°
2026-04-25 21:09 51.53754 -2.75691 7791 ft 246 kts 162°
2026-04-25 21:10 51.52082 -2.75443 7337 ft 242 kts 192°
2026-04-25 21:10 51.50594 -2.76620 6972 ft 241 kts 224°
2026-04-25 21:10 51.49719 -2.78867 6684 ft 240 kts 253°
2026-04-25 21:10 51.49348 -2.81483 6350 ft 241 kts 259°
2026-04-25 21:11 51.48985 -2.84114 6010 ft 241 kts 248°
2026-04-25 21:11 51.48262 -2.86489 5839 ft 232 kts 241°
2026-04-25 21:11 51.47506 -2.88677 5698 ft 217 kts 240°
2026-04-25 21:11 51.46794 -2.90686 5579 ft 204 kts 240°
2026-04-25 21:12 51.46096 -2.92652 5323 ft 198 kts 240°
2026-04-25 21:12 51.45425 -2.94543 4992 ft 198 kts 240°
2026-04-25 21:12 51.44520 -2.96161 4664 ft 196 kts 208°
2026-04-25 21:12 51.43672 -2.96693 4495 ft 192 kts 194°
2026-04-25 21:13 51.42018 -2.97308 4285 ft 176 kts 191°
2026-04-25 21:13 51.40837 -2.97698 3932 ft 172 kts 190°
2026-04-25 21:13 51.39649 -2.97723 3550 ft 172 kts 163°
2026-04-25 21:13 51.38582 -2.96886 3398 ft 168 kts 140°
2026-04-25 21:14 51.37830 -2.95521 3278 ft 165 kts 119°
2026-04-25 21:14 51.37450 -2.93797 3115 ft 165 kts 97°
2026-04-25 21:14 51.37460 -2.91978 2927 ft 164 kts 86°
2026-04-25 21:14 51.37536 -2.90166 2710 ft 163 kts 86°
2026-04-25 21:15 51.37610 -2.88361 2496 ft 162 kts 86°
2026-04-25 21:15 51.37684 -2.86563 2278 ft 162 kts 86°
2026-04-25 21:15 51.37757 -2.84763 2061 ft 162 kts 86°
2026-04-25 21:15 51.37828 -2.82994 1836 ft 153 kts 86°
2026-04-25 21:16 51.37893 -2.81363 1639 ft 143 kts 87°
2026-04-25 21:16 51.37956 -2.79795 1464 ft 140 kts 87°
2026-04-25 21:16 51.38017 -2.78246 1278 ft 139 kts 88°
2026-04-25 21:16 51.38077 -2.76709 1071 ft 137 kts 88°
2026-04-25 21:17 51.38138 -2.75182 911 ft 137 kts 88°
2026-04-25 21:17 51.38197 -2.73658 715 ft 137 kts 87°
2026-04-25 21:17 51.38254 -2.72230 631 ft 105 kts 86°
2026-04-25 21:17 51.38280 -2.71559 613 ft 20 kts 86°
2026-04-25 21:18 51.38296 -2.71466 621 ft 6 kts 38°
2026-04-25 21:18 51.38330 -2.71471 613 ft 5 kts 336°
2026-04-25 21:18 51.38359 -2.71497 618 ft 4 kts 330°
2026-04-25 21:18 51.38376 -2.71512 607 ft 0 kts 330°
2026-04-25 21:19 51.38380 -2.71516 612 ft 5 kts 330°
2026-04-25 21:19 51.38424 -2.71525 609 ft 2 kts 17°
2026-04-25 21:20 51.38430 -2.71519 620 ft 4 kts 28°
2026-04-25 21:20 51.38443 -2.71488 614 ft 4 kts 69°
2026-04-25 21:20 51.38446 -2.71442 613 ft 9 kts 85°
2026-04-25 21:20 51.38449 -2.71347 614 ft 8 kts 86°
2026-04-25 21:21 51.38454 -2.71228 616 ft 20 kts 86°
2026-04-25 21:21 51.38460 -2.71077 615 ft 6 kts 86°
2026-04-25 21:21 51.38460 -2.71073 615 ft 5 kts 86°
2026-04-25 21:22 51.38462 -2.71015 615 ft 7 kts 86°
2026-04-25 21:22 51.38465 -2.70936 614 ft 7 kts 86°
2026-04-25 21:22 51.38472 -2.70862 622 ft 6 kts 67°
2026-04-25 21:22 51.38517 -2.70826 620 ft 8 kts 28°
2026-04-25 21:23 51.38531 -2.70778 618 ft 2 kts 81°
2026-04-25 21:23 51.38532 -2.70763 615 ft 0 kts 85°